Regional Weather Roundup
Issued by NWS

Home | Current Version | Previous Version | Graphics & Text | Print | Product List | Glossary On
Versions: 1 2 3 4 5 6 7 8 9 10 11 12 13 14 15 16 17 18 19 20 21 22 23 24 25 26 27 28 29 30 31 32 33 34 35 36 37 38 39 40 41 42 43 44 45 46 47 48 49 50
000
ASUS43 KIND 290059
RWRIN

WEATHER ROUNDUP FOR INDIANA
NATIONAL WEATHER SERVICE INDIANAPOLIS IN
900 PM EDT FRI AUG 28 2015

NOTE: "FAIR" INDICATES FEW OR NO CLOUDS BELOW 12,000 FEET WITH NO
SIGNIFICANT WEATHER AND/OR OBSTRUCTIONS TO VISIBILITY.

* - STATION DOES NOT REPORT WEATHER SUCH AS PRECIPITATION OR FOG.

+ - STATION NOT QUALITY CONTROLLED BY THE NATIONAL WEATHER SERVICE.
    USE DATA WITH CAUTION...ESPECIALLY DEWPOINT AND RELATIVE
    HUMIDITY OBSERVATIONS.

INZ001>003-010>013-019-020-290200-
NORTHWEST INDIANA

CITY           SKY/WX    TMP DP  RH WIND       PRES   REMARKS
GARY /AIRPORT/ CLOUDY    68  64  88 CALM      30.08R
KNOX *+        CLOUDY    68  61  77 SE3       30.08S
MONTICELLO +   CLOUDY    71  60  69 E3        30.07S
RENSSELAER +   CLOUDY    70  63  78 E3        30.08S

$$

LMZ046-743>745-290200-
SOUTHERN LAKE MICHIGAN

STATION/POSITION TIME  TEMP    WIND        PRES    WAVE
                       AIR SEA DIR/SP/G            HT
                 (UTC) (F)     (DEG/KT/KT) (MB)    (FT)
BURNS HARBOR     0000   71      90/  2/  7 1018.6S
MICHIGAN CITY    0000   72      70/  4/  5   N/A
5NW MICH CITY    0000   71 71   90/  6/  8   N/A     0

$$

INZ004-005-014>016-021>024-290200-
NORTH CENTRAL INDIANA

CITY           SKY/WX    TMP DP  RH WIND       PRES   REMARKS
ELKHART        CLOUDY    72  63  73 CALM      30.10S
GOSHEN         CLOUDY    70  62  76 SE6       30.09F
SOUTH BEND     CLOUDY    72  61  68 CALM      30.10R
WARSAW +       CLOUDY    68  61  77 SE3       30.09F

$$

INZ006>009-017-018-025>027-290200-
NORTHEAST INDIANA

CITY           SKY/WX    TMP DP  RH WIND       PRES   REMARKS
ANGOLA *+      CLEAR     64  63  94 CALM      30.12S
AUBURN +       MOCLDY    64  61  88 CALM      30.12S
FORT WAYNE     MOCLDY    68  60  75 SE5       30.12S

$$

INZ028-029-035-036-043>045-051>053-290200-
WEST CENTRAL INDIANA

CITY           SKY/WX    TMP DP  RH WIND       PRES   REMARKS
CRAWFORDSVL +  CLOUDY    64  57  76 SE5       30.08S
GREENCASTLE +  MOCLDY    64  55  72 E3        30.09S
LAFAYETTE      CLOUDY    70  58  65 S3        30.07S
TERRE HAUTE    PTCLDY    69  59  70 E5        30.06F

$$

INZ030>032-037>040-046>048-054>057-064-065-290200-
CENTRAL INDIANA

CITY           SKY/WX    TMP DP  RH WIND       PRES   REMARKS
COLUMBUS       CLEAR     70  55  60 E5        30.09
FRANKFORT +    CLOUDY    66  61  83 E5        30.11R
GREENWOOD *+   PTCLDY    70  55  60 E3        30.10S
INDIANAPOLIS   MOCLDY    71  55  56 E7        30.07S
-EAGLE CREEK   MOCLDY    72  56  57 SE5       30.09R
KOKOMO *+      MOCLDY    64  52  63 SE6       30.10R
MT COMFORT *+  MOCLDY    64  57  77 E5        30.10S
SHELBYVILLE    PTCLDY    66  60  81 E5        30.09R
ZIONSVILLE +   MOCLDY    67  56  69 SE5       30.11R

$$

INZ033-034-041-042-049-050-058-059-290200-
EAST CENTRAL INDIANA

CITY           SKY/WX    TMP DP  RH WIND       PRES   REMARKS
MUNCIE         PTCLDY    69  57  65 S5        30.11F

$$

INZ060-061-067>069-081>083-085>088-290200-
SOUTHWEST INDIANA

CITY           SKY/WX    TMP DP  RH WIND       PRES   REMARKS
EVANSVILLE     PTCLDY    74  64  71 CALM      30.06R
HUNTINGBURG *+ PTCLDY    72  63  73 CALM      30.07S

$$

INZ062-063-066-070>080-084-089>092-290200-
SOUTH CENTRAL AND SOUTHEAST INDIANA

CITY           SKY/WX    TMP DP  RH WIND       PRES   REMARKS
BLOOMINGTON    MOCLDY    65  62  90 CALM      30.09R
MADISON *+     PTCLDY    66  61  82 CALM      30.12R
SEYMOUR +      PTCLDY    66  61  82 CALM      30.09R

$$




USA.gov is the U.S. government's official web portal to all federal, state and local government web resources and services.